| time (UTC) | temp F | wind direction | speed MPH | gust MPH | rain 1hr in | rain 24hr in | rain mn in | humidity % | barometer mb |
| 20260503220004 | 60 | 222 | 1.0 | 2.0 | 0.00 | 0.00 | 0.00 | 90 | 1025.4 |
| 20260503215004 | 60 | 270 | 1.0 | 2.0 | 0.00 | 0.00 | 0.00 | 90 | 1025.5 |
| 20260503214004 | 60 | 351 | 0.0 | 3.0 | 0.00 | 0.00 | 0.00 | 92 | 1025.4 |
| 20260503213003 | 60 | 135 | 0.0 | 1.0 | 0.00 | 0.00 | 0.00 | 96 | 1025.3 |
| 20260503212004 | 59 | 56 | 0.0 | 1.0 | 0.00 | 0.00 | 0.00 | 98 | 1025.5 |
| 20260503211004 | 58 | 45 | 0.0 | 1.0 | 0.00 | 0.00 | 0.00 | 98 | 1025.4 |
| 20260503210005 | 57 | 0 | 1.0 | 1.0 | 0.00 | 0.00 | 0.00 | 99 | 1025.3 |
| 20260503205004 | 57 | 45 | 0.0 | 1.0 | 0.00 | 0.00 | 0.00 | 99 | 1025.3 |
| 20260503204004 | 56 | 76 | 0.0 | 1.0 | 0.00 | 0.00 | 0.00 | 99 | 1025.2 |
| 20260503203003 | 56 | 90 | 0.0 | 1.0 | 0.00 | 0.00 | 0.00 | 99 | 1025.3 |
| 20260503202004 | 55 | 45 | 0.0 | 1.0 | 0.00 | 0.00 | 0.00 | 97 | 1025.0 |
| 20260503201004 | 55 | 0 | 0.0 | 1.0 | 0.00 | 0.00 | 0.00 | 97 | 1025.0 |
| 20260503200004 | 54 | 197 | 0.0 | 2.0 | 0.00 | 0.00 | 0.00 | 97 | 1024.9 |
| 20260503195004 | 53 | 180 | 0.0 | 1.0 | 0.00 | 0.00 | 0.00 | 98 | 1024.8 |
| 20260503194003 | 53 | 45 | 0.0 | 2.0 | 0.00 | 0.00 | 0.00 | 98 | 1024.8 |
| 20260503193004 | 53 | 0 | 0.0 | 1.0 | 0.00 | 0.00 | 0.00 | 98 | 1024.6 |
| 20260503192004 | 53 | 4 | 0.0 | 1.0 | 0.00 | 0.00 | 0.00 | 98 | 1024.6 |
| 20260503191004 | 53 | 90 | 0.0 | 1.0 | 0.00 | 0.00 | 0.00 | 98 | 1024.4 |
| 20260503190003 | 53 | 71 | 0.0 | 1.0 | 0.00 | 0.00 | 0.00 | 98 | 1024.3 |
| 20260503185004 | 53 | 153 | 0.0 | 1.0 | 0.00 | 0.00 | 0.00 | 98 | 1024.3 |
| 20260503184003 | 53 | 123 | 0.0 | 1.0 | 0.00 | 0.00 | 0.00 | 98 | 1024.1 |
| 20260503183004 | 53 | 0 | 0.0 | 1.0 | 0.00 | 0.00 | 0.00 | 98 | 1024.2 |
| 20260503182005 | 53 | 135 | 0.0 | 2.0 | 0.00 | 0.00 | 0.00 | 98 | 1024.0 |
| 20260503181004 | 53 | 158 | 0.0 | 2.0 | 0.00 | 0.00 | 0.00 | 98 | 1024.1 |
| 20260503180004 | 53 | 160 | 0.0 | 1.0 | 0.00 | 0.00 | 0.00 | 98 | 1024.0 |
| 20260503175003 | 53 | 135 | 0.0 | 1.0 | 0.00 | 0.00 | 0.00 | 98 | 1024.0 |
| 20260503174007 | 53 | 90 | 0.0 | 2.0 | 0.00 | 0.00 | 0.00 | 98 | 1024.0 |
| 20260503173006 | 53 | 90 | 0.0 | 1.0 | 0.00 | 0.00 | 0.00 | 98 | 1023.9 |
| 20260503172006 | 52 | 0 | 0.0 | 1.0 | 0.00 | 0.00 | 0.00 | 98 | 1024.2 |
| 20260503171006 | 52 | 90 | 1.0 | 3.0 | 0.00 | 0.00 | 0.00 | 98 | 1024.2 |
| 20260503151004 | 51 | 90 | 0.0 | 0.0 | 0.00 | 0.00 | 0.00 | 99 | 1024.6 |
| 20260503131004 | 48 | 135 | 0.0 | 0.0 | 0.00 | 0.00 | 0.00 | 99 | 1025.1 |
| 20260503081003 | 51 | 153 | 0.0 | 3.0 | 0.00 | 0.00 | 0.00 | 96 | 1024.0 |
| 20260503072004 | 53 | 132 | 1.0 | 1.0 | 0.00 | 0.00 | 0.00 | 94 | 1024.1 |
| 20260503071004 | 53 | 135 | 0.0 | 2.0 | 0.00 | 0.00 | 0.00 | 94 | 1024.0 |
| 20260503055004 | 57 | 90 | 0.0 | 1.0 | 0.00 | 0.00 | 0.00 | 80 | 1023.9 |
| 20260503054004 | 60 | 90 | 1.0 | 1.0 | 0.00 | 0.00 | 0.00 | 75 | 1023.9 |
| 20260503053004 | 63 | 139 | 0.0 | 0.0 | 0.00 | 0.00 | 0.00 | 69 | 1023.7 |
| 20260503052003 | 67 | 122 | 0.0 | 0.0 | 0.00 | 0.00 | 0.00 | 66 | 1023.9 |
| 20260503051004 | 68 | 225 | 0.0 | 0.0 | 0.00 | 0.00 | 0.00 | 64 | 1023.7 |
| 20260503050005 | 69 | 257 | 0.0 | 0.0 | 0.00 | 0.00 | 0.00 | 64 | 1023.7 |
| 20260503045004 | 69 | 292 | 0.0 | 1.0 | 0.00 | 0.00 | 0.00 | 63 | 1023.7 |
| 20260503044004 | 69 | 270 | 0.0 | 2.0 | 0.00 | 0.00 | 0.00 | 63 | 1023.8 |
| 20260503043004 | 69 | 270 | 1.0 | 3.0 | 0.00 | 0.00 | 0.00 | 62 | 1023.9 |
| 20260503042003 | 69 | 321 | 1.0 | 5.0 | 0.00 | 0.00 | 0.00 | 61 | 1023.9 |
| 20260503041004 | 69 | 288 | 1.0 | 5.0 | 0.00 | 0.00 | 0.00 | 61 | 1023.9 |
| 20260503040004 | 70 | 241 | 1.0 | 3.0 | 0.00 | 0.00 | 0.00 | 60 | 1023.8 |
| 20260503035003 | 70 | 348 | 1.0 | 3.0 | 0.00 | 0.00 | 0.00 | 59 | 1024.0 |
| 20260503034004 | 69 | 283 | 1.0 | 3.0 | 0.00 | 0.00 | 0.00 | 63 | 1023.9 |
| 20260503033004 | 69 | 315 | 2.0 | 6.0 | 0.00 | 0.00 | 0.00 | 60 | 1023.9 |
| 20260503032004 | 70 | 306 | 2.0 | 6.0 | 0.00 | 0.00 | 0.00 | 59 | 1024.1 |
| 20260503031005 | 70 | 344 | 1.0 | 5.0 | 0.00 | 0.00 | 0.00 | 61 | 1024.2 |
| 20260503030005 | 69 | 74 | 2.0 | 5.0 | 0.00 | 0.00 | 0.00 | 61 | 1024.2 |
| 20260503025004 | 70 | 331 | 1.0 | 3.0 | 0.00 | 0.00 | 0.00 | 64 | 1024.2 |
| 20260503024004 | 68 | 205 | 1.0 | 8.0 | 0.00 | 0.00 | 0.00 | 65 | 1024.3 |
| 20260503023003 | 68 | 297 | 2.0 | 6.0 | 0.00 | 0.00 | 0.00 | 65 | 1024.2 |
| 20260503022004 | 67 | 128 | 1.0 | 5.0 | 0.00 | 0.00 | 0.00 | 64 | 1024.4 |
| 20260503021004 | 67 | 321 | 2.0 | 6.0 | 0.00 | 0.00 | 0.00 | 66 | 1024.5 |
| 20260503020004 | 68 | 275 | 2.0 | 6.0 | 0.00 | 0.00 | 0.00 | 64 | 1024.2 |
| 20260503015003 | 68 | 327 | 2.0 | 6.0 | 0.00 | 0.00 | 0.00 | 65 | 1024.4 |
| 20260503014004 | 67 | 261 | 3.0 | 8.0 | 0.00 | 0.00 | 0.00 | 65 | 1024.4 |
| 20260503013004 | 67 | 20 | 3.0 | 6.0 | 0.00 | 0.00 | 0.00 | 67 | 1024.3 |
| 20260503012004 | 67 | 356 | 4.0 | 7.0 | 0.00 | 0.00 | 0.00 | 64 | 1024.3 |
| 20260503011004 | 67 | 334 | 2.0 | 6.0 | 0.00 | 0.00 | 0.00 | 64 | 1024.4 |
| 20260503010004 | 67 | 238 | 2.0 | 6.0 | 0.00 | 0.00 | 0.00 | 66 | 1024.5 |
| 20260503005004 | 67 | 341 | 2.0 | 6.0 | 0.00 | 0.00 | 0.00 | 66 | 1024.5 |
| 20260503004004 | 66 | 255 | 2.0 | 7.0 | 0.00 | 0.00 | 0.00 | 65 | 1024.8 |
| 20260503003004 | 67 | 10 | 2.0 | 6.0 | 0.00 | 0.00 | 0.00 | 67 | 1024.9 |
| 20260503002004 | 66 | 312 | 3.0 | 6.0 | 0.00 | 0.00 | 0.00 | 69 | 1024.9 |
| 20260503001004 | 67 | 313 | 2.0 | 6.0 | 0.00 | 0.00 | 0.00 | 69 | 1024.9 |
| 20260503000003 | 67 | 239 | 2.0 | 6.0 | 0.00 | 0.00 | 0.00 | 70 | 1025.1 |
| 20260502235003 | 67 | 304 | 2.0 | 5.0 | 0.00 | 0.00 | 0.00 | 70 | 1025.1 |
| 20260502234003 | 66 | 0 | 2.0 | 6.0 | 0.00 | 0.00 | 0.00 | 71 | 1025.2 |
| 20260502233003 | 66 | 252 | 2.0 | 5.0 | 0.00 | 0.00 | 0.00 | 70 | 1025.1 |
| 20260502232004 | 66 | 23 | 2.0 | 5.0 | 0.00 | 0.00 | 0.00 | 73 | 1025.3 |
| 20260502231004 | 66 | 315 | 2.0 | 5.0 | 0.00 | 0.00 | 0.00 | 71 | 1025.3 |
| 20260502230004 | 66 | 1 | 1.0 | 3.0 | 0.00 | 0.00 | 0.00 | 72 | 1025.2 |
| 20260502225004 | 66 | 286 | 1.0 | 3.0 | 0.00 | 0.00 | 0.00 | 72 | 1025.2 |
| 20260502224004 | 67 | 313 | 1.0 | 3.0 | 0.00 | 0.00 | 0.00 | 68 | 1025.2 |
| 20260502223004 | 68 | 315 | 0.0 | 3.0 | 0.00 | 0.00 | 0.00 | 68 | 1025.2 |
| 20260502222006 | 68 | 28 | 1.0 | 3.0 | 0.00 | 0.00 | 0.00 | 70 | 1025.2 |
| 20260502221005 | 67 | 236 | 1.0 | 2.0 | 0.00 | 0.00 | 0.00 | 79 | 1025.2 |